Theta_e
302 301 300 300 300 299 299 298 297 296 296 296 295 295 295 295 295 295 294 294 294 294 295 295 294 294 294 294 293 292 292 292 292 291 291 291 289 289 289 288 287 287
302 301 301 300 299 299 299 298 297 297 296 296 296 296 296 295 295 295 294 294 294 294 294 294 294 294 293 293 292 292 291 291 291 291 290 290 289 289 289 288 288 288
301 301 301 300 299 298 298 298 298 297 297 297 297 296 296 296 295 295 295 294 294 294 294 294 293 293 293 292 291 291 291 291 290 290 290 289 289 289 289 289 289 288
301 301 301 300 299 298 298 297 297 297 297 296 296 296 296 295 295 295 295 294 294 294 294 293 293 292 291 291 291 290 290 290 290 289 289 289 289 289 289 289 289 288
301 301 300 299 299 298 298 297 297 297 296 296 296 296 295 295 294 294 294 294 294 293 293 292 292 291 290 290 290 289 289 289 289 289 288 288 289 289 288 288 287 287
300 300 299 299 298 297 297 297 297 297 296 296 296 295 295 295 294 294 294 294 294 293 293 292 291 291 290 290 289 289 289 288 288 288 288 288 287 288 288 287 287 286
298 298 298 298 298 297 297 297 297 296 297 296 296 295 295 294 294 294 294 294 294 293 292 291 291 290 290 289 289 288 288 288 288 288 288 287 287 286 287 287 286 286
298 298 298 298 297 297 296 296 296 297 296 296 295 295 295 294 294 294 294 294 293 293 292 291 291 290 290 289 288 288 287 288 288 287 287 286 286 285 286 286 286 285
297 297 297 297 296 296 296 296 296 296 296 295 295 295 295 295 294 294 294 293 293 293 292 291 291 290 290 289 288 288 288 288 288 287 287 286 286 286 286 286 285 286
297 297 297 296 296 296 296 296 296 295 295 295 295 295 294 294 295 294 293 293 292 292 292 291 291 290 289 289 289 288 288 288 288 287 287 287 287 287 287 286 285 285
296 296 296 296 296 296 296 296 296 295 295 295 294 294 294 294 294 294 293 293 292 292 291 291 290 290 289 289 289 289 289 288 288 288 287 287 287 288 287 286 286 285
296 296 296 296 296 296 296 296 295 295 294 294 294 294 294 294 293 293 292 292 292 292 291 291 290 290 289 289 289 289 289 289 289 288 288 287 288 288 288 287 286 285
296 296 296 296 296 296 296 295 295 295 294 294 294 294 293 293 293 292 292 292 291 291 291 290 290 289 289 289 289 290 289 289 288 288 288 288 288 288 288 287 287 285
296 297 297 297 297 296 296 296 295 295 294 294 294 293 293 293 292 292 291 291 291 290 291 290 289 289 289 289 289 289 289 289 289 288 288 287 287 286 286 286 286 285
297 297 297 297 297 297 296 296 295 295 294 294 293 293 293 293 293 292 290 290 290 290 290 290 289 289 290 289 289 288 289 289 288 288 287 287 287 286 287 287 286 286
297 297 297 297 296 296 296 295 295 294 294 293 293 293 292 292 291 291 290 290 289 289 289 290 290 290 289 289 290 289 289 289 288 288 287 287 286 286 286 286 286 286
297 297 297 296 296 296 296 295 295 294 293 292 292 292 291 291 290 290 289 289 289 289 289 290 290 290 289 291 291 291 289 288 287 287 287 286 285 285 285 285 285 285
296 296 296 296 296 296 295 294 293 293 292 292 292 291 291 290 289 289 289 289 289 289 289 290 290 290 291 291 291 291 289 288 288 287 287 287 286 285 285 284 284 284
296 295 295 295 295 295 294 294 293 293 292 291 291 291 290 289 290 289 289 289 290 289 289 290 290 290 291 291 291 291 291 289 288 288 287 286 285 284 283 283 284 284
296 296 295 295 295 295 294 293 293 292 292 292 291 290 290 290 289 289 289 289 289 289 290 290 289 289 291 291 291 291 291 290 288 288 287 286 285 285 285 284 284 285
296 296 295 295 296 295 294 293 293 292 292 292 291 290 290 289 289 288 289 289 289 289 289 289 290 290 292 291 291 291 291 290 287 287 286 285 285 285 286 286 286 286
296 296 295 295 295 294 294 293 293 292 292 292 291 291 291 290 289 290 289 289 289 289 289 289 289 290 291 291 291 291 291 288 286 285 285 285 286 286 286 287 287 287
296 296 295 295 295 294 293 293 293 292 292 292 291 291 291 290 290 289 290 290 289 289 289 289 290 290 290 290 291 291 290 286 285 284 285 285 285 286 287 287 287 287
296 296 295 295 294 294 293 293 293 293 293 292 292 291 290 290 291 291 291 291 289 289 290 289 290 289 290 290 290 291 288 286 286 285 285 285 286 287 287 287 287 286
297 296 296 295 294 294 294 293 293 293 293 292 292 292 292 292 291 292 291 291 289 290 288 290 290 288 289 290 290 290 288 287 286 286 286 286 287 287 288 288 288 287
297 296 296 295 295 294 294 294 294 293 293 292 293 293 292 292 291 292 291 290 289 290 290 291 291 290 289 290 290 290 290 288 287 286 286 288 288 288 287 287 288 289
Wind_Speed
10 10 11 10 10 10 11 10 8 9 8 8 8 8 9 8 9 9 9 8 7 7 7 7 7 7 7 7 6 6 5 5 5 5 4 5 4 4 4 4 3 4
11 10 9 9 8 7 7 8 9 10 9 8 7 8 8 9 9 9 9 8 8 7 7 7 6 6 7 6 6 6 5 5 5 3 5 4 4 4 4 5 4 3
11 11 11 11 10 11 10 8 8 8 8 8 8 8 8 9 10 8 8 8 8 7 7 7 7 6 7 6 6 6 6 6 6 4 5 5 4 5 4 4 4 4
11 11 9 9 10 11 10 9 8 8 8 8 8 8 8 8 9 10 9 9 8 7 6 6 7 6 6 6 6 6 6 6 5 5 5 4 4 4 4 4 4 3
10 10 9 9 9 10 10 10 10 9 9 8 8 8 9 10 10 9 9 8 8 7 7 7 7 6 6 6 6 6 5 5 5 6 6 5 4 5 4 5 5 4
7 8 9 10 10 11 10 10 10 10 10 10 9 8 9 9 9 10 10 9 8 8 7 7 7 7 7 7 6 6 6 6 6 6 6 6 5 4 4 4 4 5
8 8 9 9 10 10 10 10 9 9 9 9 9 9 10 10 10 10 10 9 9 8 8 8 8 8 7 7 7 7 6 6 6 6 6 5 5 4 4 5 5 5
9 8 9 9 10 10 10 10 9 9 9 10 9 9 10 10 10 9 9 9 9 8 8 8 8 8 8 7 7 7 6 5 6 6 5 5 5 5 5 5 5 5
9 9 9 10 10 9 10 9 9 9 9 10 9 9 8 9 10 10 10 9 8 8 8 8 8 8 8 8 7 8 8 7 6 7 6 6 6 6 6 5 5 5
9 10 10 10 10 9 11 10 9 9 8 9 9 9 10 8 9 10 10 10 9 9 9 8 8 8 8 7 8 8 7 7 7 7 7 7 7 6 6 6 7 6
10 10 10 10 10 9 11 10 9 9 8 9 9 9 9 9 8 9 9 10 10 10 9 9 9 9 9 8 7 6 7 7 7 7 7 8 7 6 6 6 6 7
9 9 10 10 10 10 11 11 10 9 9 8 10 10 9 9 10 9 9 10 9 9 9 8 9 9 9 8 8 7 6 6 6 6 6 6 6 6 6 6 6 6
8 9 9 9 9 9 9 9 10 9 10 9 9 11 11 10 9 9 8 8 8 8 9 9 9 8 8 8 8 8 8 7 7 6 6 6 6 6 6 6 6 6
7 8 8 8 8 8 9 9 9 10 10 9 9 10 10 10 10 10 8 8 8 8 8 8 8 8 9 9 9 8 8 8 7 7 6 5 5 5 5 5 6 6
6 7 7 8 8 9 9 9 9 9 9 9 9 9 9 9 8 8 9 8 7 8 8 7 8 9 8 9 9 9 8 8 7 7 6 6 5 5 5 5 5 5
7 6 7 8 9 9 9 9 9 9 9 9 9 8 7 7 8 8 8 9 9 8 7 8 8 7 9 14 12 9 9 7 7 7 6 6 6 6 5 6 6 5
7 7 7 9 8 8 9 9 9 9 9 9 9 9 9 8 8 9 8 8 9 9 9 8 8 7 13 14 15 14 9 8 8 8 7 7 6 7 7 7 6 6
7 8 8 8 8 8 8 8 8 8 8 8 8 9 8 8 8 8 8 8 8 7 9 8 8 9 14 15 15 15 11 8 7 7 7 7 7 7 7 6 6 6
7 8 8 8 7 7 7 8 8 8 8 9 9 8 8 9 9 8 8 7 8 9 9 8 7 11 15 16 16 16 15 10 6 6 7 7 6 6 6 6 5 5
8 8 8 8 7 7 8 7 8 8 7 6 6 8 9 9 8 9 8 8 8 8 8 7 7 11 16 16 16 16 15 10 5 6 6 6 6 6 6 6 6 6
9 8 8 8 8 8 8 8 7 7 8 8 7 8 9 9 9 10 9 8 8 7 7 7 6 11 14 15 15 15 15 11 5 4 4 4 5 5 6 6 6 6
9 9 8 8 7 8 8 7 7 8 8 8 8 7 6 7 6 7 9 9 8 7 7 6 5 11 13 13 14 13 13 7 6 5 5 5 5 6 6 6 6 7
10 10 10 9 8 9 9 8 8 8 7 7 8 8 8 8 8 8 7 8 8 8 8 6 6 10 13 14 14 15 11 6 6 6 6 7 7 6 6 6 6 6
9 10 10 10 10 9 9 8 7 6 7 7 8 8 8 7 7 7 7 7 7 8 8 7 6 9 15 14 15 15 12 9 7 7 7 7 7 6 6 6 7 10
9 9 9 10 10 10 9 9 9 8 7 7 6 6 6 7 7 7 7 6 7 7 8 8 6 7 14 15 16 17 13 7 8 7 7 7 7 7 5 6 7 7
9 9 9 10 9 8 8 8 7 7 8 8 6 6 6 6 7 7 7 6 6 7 7 8 7 7 10 15 15 16 16 9 7 8 8 8 7 7 7 6 7 7
Wind_Direction
150 153 155 156 157 162 160 157 158 149 147 150 155 155 156 151 156 159 157 155 154 146 141 142 143 142 140 136 137 133 140 147 148 157 159 154 166 169 172 176 171 175
152 149 149 149 142 148 152 152 152 150 147 150 148 146 150 153 158 157 157 154 149 147 141 143 148 145 141 138 139 139 142 148 153 152 153 163 174 171 184 180 184 177
148 148 150 154 151 151 149 143 142 140 143 145 143 148 149 152 153 153 153 152 147 146 150 151 147 147 143 141 147 149 154 157 161 159 155 172 166 178 180 158 165 174
151 149 145 140 142 142 141 138 138 136 135 140 150 146 147 150 150 150 151 150 148 147 149 150 147 146 146 151 154 154 160 166 159 153 154 157 167 163 155 145 152 164
145 143 137 135 133 135 140 143 145 146 145 142 135 138 143 150 151 151 152 152 150 149 152 150 144 149 153 158 159 153 159 156 151 156 162 165 164 157 156 152 168 179
122 128 131 137 140 141 146 148 148 147 145 146 148 141 144 148 154 155 155 153 153 152 152 149 152 156 161 159 157 158 158 156 159 161 164 165 163 157 152 160 167 188
126 126 128 133 135 141 142 145 143 145 147 144 138 147 149 152 155 157 156 155 153 154 157 160 161 164 165 162 161 160 165 158 158 163 163 161 160 162 164 170 182 198
126 123 129 134 136 139 140 143 144 144 142 142 149 149 154 155 155 153 155 155 155 158 161 165 169 169 168 165 164 161 160 158 161 165 163 166 165 176 184 189 186 200
131 134 135 139 140 142 142 144 143 137 140 142 144 148 152 157 157 154 156 157 158 165 167 171 174 173 171 169 169 167 167 170 170 167 168 173 179 189 189 181 190 204
139 139 141 144 146 147 146 146 143 142 142 141 143 146 154 157 158 156 156 162 164 170 175 174 173 173 171 176 174 171 170 171 172 171 172 188 193 191 186 185 197 199
146 147 149 152 150 149 149 148 148 146 149 148 147 151 154 154 157 159 160 164 172 177 175 175 175 172 174 175 175 173 171 173 177 177 182 188 192 192 190 190 194 203
147 149 154 156 155 152 154 156 154 154 153 150 153 153 153 161 160 164 169 171 174 175 172 172 173 177 178 178 176 175 179 181 182 185 187 188 190 188 190 187 192 200
152 156 155 156 157 154 151 154 157 157 157 157 161 160 161 164 168 162 166 167 169 166 172 173 175 175 178 179 180 182 184 185 188 186 186 191 193 190 190 186 189 195
151 153 153 153 152 152 152 155 156 159 162 158 159 164 166 170 169 165 161 164 167 169 170 169 171 176 182 184 184 184 182 188 188 182 182 186 187 191 187 187 191 195
147 150 150 143 149 153 155 158 160 159 157 158 164 165 169 166 160 155 153 159 163 165 168 170 176 186 186 183 181 183 181 183 179 178 178 181 189 195 201 198 197 200
148 150 148 150 157 159 159 156 156 157 157 161 168 166 160 156 152 152 159 163 165 169 172 177 185 192 191 187 183 178 180 180 177 178 177 179 185 197 210 210 211 209
151 154 150 156 159 157 157 158 156 157 161 163 166 166 163 158 154 155 164 168 170 173 178 186 190 193 188 186 184 180 177 180 181 180 177 179 186 195 206 212 218 214
152 152 153 154 155 158 155 152 149 155 160 163 165 163 158 152 157 163 164 168 170 177 187 192 195 190 186 187 184 181 179 181 184 180 180 184 191 200 209 208 213 213
152 154 155 157 158 153 150 148 154 159 162 169 172 164 151 158 163 159 168 171 174 181 192 192 196 189 186 187 186 182 183 181 185 178 175 185 192 201 206 210 210 210
154 155 157 160 161 156 152 152 159 165 159 159 157 156 160 158 159 165 168 178 184 187 189 188 191 191 186 186 184 183 184 183 177 174 177 181 192 197 204 208 208 207
155 156 156 162 163 156 155 158 161 161 165 167 166 168 166 166 164 170 177 180 188 188 186 190 196 188 184 184 184 186 188 187 182 175 176 189 195 196 203 206 205 203
158 158 156 161 156 153 158 161 164 169 172 166 163 166 164 157 163 173 178 184 189 188 187 191 191 187 186 184 185 187 185 184 183 189 198 205 208 208 209 208 204 205
162 162 160 163 159 158 165 167 167 170 171 164 167 172 171 173 174 179 178 180 184 189 190 186 183 184 181 183 184 182 174 178 185 192 205 210 218 214 211 208 208 207
166 165 163 164 162 168 170 169 169 167 169 168 173 171 172 169 164 169 178 182 184 192 191 184 185 185 182 183 182 180 175 178 184 190 205 211 220 220 215 217 218 216
170 169 169 168 169 172 172 170 173 171 162 165 168 167 169 166 171 173 176 182 187 189 183 186 190 191 188 186 185 182 179 178 179 190 200 212 212 220 215 218 225 221
175 174 174 173 172 168 168 170 164 158 160 165 168 168 169 171 172 172 172 181 176 184 189 193 193 195 195 192 188 186 182 177 180 182 204 209 207 208 214 220 222 230